sat.trackr.live / text

‹ back to catalog

STARLINK-31874

NORAD 60603 · 2024-150W

PAYLOAD ACTIVE UNKNOWN

§ Identity

Operator
Country
US
Launch date
2024-08-20
Launch site
AFETR
Launch vehicle
Mass (kg)
RCS (m²)

Purposes: comms

External: N2YO · Heavens-Above · Gunter

§ Orbital elements

Epoch: 2026-09-21T20:08:25.334304Z

Period
93.85 min
Inclination
53.1606°
Eccentricity
0.0001461
Mean motion
15.34385655 rev/d
Perigee alt
461.7 km
Apogee alt
463.7 km
Semi-major
6,840.9 km
B*
1.2977e-5
RAAN
111.6128°
Arg perigee
92.7533°
Mean anomaly
267.3637°
Rev number
11,813

§ Raw data

STARLINK-318741 60603U 24150W   26264.83918211  .00000062  00000+0  12977-4 0  99972 60603  53.1606 111.6128 0001461  92.7533 267.3637 15.34385655118132

JSON: /api/v1/satellites/60603 · /tle

For live sub-satellite position, see the globe view (requires WebGL).

§ Visibility from observer

Set your observer location to see the next 7 days of passes ≥ 10°. The values pass through the URL so the page stays shareable.

No JS? Fill the form by hand. The geolocation button needs JavaScript.